Fosston, MN

1:22 PM CDT on August 20, 2017 (GMT -0500)
Fosston Municipal

Weather History for KFSE - December, 2010

Change the Weather History Date:

Saturday, December 4, 2010

  Actual Average Record
Temperature  
Mean Temperature 10 °F -  
Max Temperature 14 °F 26 °F 48 °F (1975)
Min Temperature 6 °F 8 °F -25 °F (1991)
Degree Days  
Heating Degree Days 55    
Moisture  
Dew Point 8 °F    
Average Humidity 86    
Maximum Humidity 92    
Minimum Humidity 79    
Precipitation  
Precipitation 0.00 in - - ()
Sea Level Pressure  
Sea Level Pressure 30.32 in    
Wind  
Wind Speed 4 mph (NW)    
Max Wind Speed 10 mph    
Max Gust Speed -    
Visibility 6 miles    
Events Snow    
Averages and records for this station are not official NWS values.
T = Trace of Precipitation, MM = Missing Value Source: NWS Daily Summary

Daily Weather History Graph

Daily Weather History Graph

Search for Another Location

Airport or City:

Trip Planner

Search our weather history database for the weather conditions in past years. The results will help you decide how hot, cold, wet, or windy it might be!

Date:

Astronomy

Dec. 04, 2010 Rise Set
Actual Time 7:53 AM CST 4:32 PM CST
Civil Twilight 7:18 AM CST 5:07 PM CST
Nautical Twilight 6:39 AM CST 5:46 PM CST
Astronomical Twilight 6:02 AM CST 6:23 PM CST
Moon 6:54 AM CST (12/4) 3:32 PM CST (12/4)
Length of Visible Light 9h 49m
Length of Day
8h 38m
Waning Crescent, 1% of the Moon is Illuminated
Dec 4
Waning Crescent
Dec 5
New
Dec 13
First Quarter
Dec 21
Full
Dec 27
Last Quarter

Hourly Weather History & Observations

Time (CST) Temp. Windchill Dew Point Humidity Pressure Visibility Wind Dir Wind Speed Gust Speed Precip Events Conditions
12:13 AM 12.2 °F - 8.6 °F 85% 30.17 in 10.0 mi Calm Calm - N/A   Overcast
12:33 AM 12.2 °F - 8.6 °F 85% 30.18 in 10.0 mi Calm Calm - N/A   Overcast
12:53 AM 12.2 °F - 8.6 °F 85% 30.18 in 4.0 mi Calm Calm - N/A Snow Light Snow
1:13 AM 12.2 °F - 8.6 °F 85% 30.19 in 5.0 mi Calm Calm - N/A Snow Light Snow
1:33 AM 12.2 °F - 8.6 °F 85% 30.20 in 7.0 mi Calm Calm - N/A   Overcast
2:13 AM 12.2 °F - 10.4 °F 92% 30.21 in 4.0 mi Calm Calm - N/A Snow Light Snow
2:53 AM 12.2 °F 2.9 °F 10.4 °F 92% 30.22 in 7.0 mi NNW 5.8 mph - N/A Snow Light Snow
3:13 AM 12.2 °F - 10.4 °F 92% 30.22 in 7.0 mi Calm Calm - N/A Snow Light Snow
3:33 AM 12.2 °F - 8.6 °F 85% 30.22 in 4.0 mi Calm Calm - N/A Snow Light Snow
3:53 AM 12.2 °F - 8.6 °F 85% 30.23 in 4.0 mi Calm Calm - N/A Snow Light Snow
4:13 AM 12.2 °F - 8.6 °F 85% 30.24 in 3.0 mi Calm Calm - N/A Snow Light Snow
4:33 AM 12.2 °F 1.7 °F 8.6 °F 85% 30.25 in 3.0 mi NW 6.9 mph - N/A Snow Light Snow
4:53 AM 10.4 °F -0.4 °F 8.6 °F 92% 30.25 in 3.0 mi NNW 6.9 mph - N/A Snow Light Snow
5:13 AM 10.4 °F -0.4 °F 8.6 °F 92% 30.25 in 4.0 mi NNW 6.9 mph - N/A Snow Light Snow
5:33 AM 10.4 °F 0.8 °F 8.6 °F 92% 30.26 in 5.0 mi NW 5.8 mph - N/A Snow Light Snow
5:53 AM 10.4 °F 0.8 °F 8.6 °F 92% 30.27 in 7.0 mi NW 5.8 mph - N/A Snow Light Snow
6:13 AM 10.4 °F 0.8 °F 8.6 °F 92% 30.27 in 10.0 mi NW 5.8 mph - N/A   Overcast
6:33 AM 10.4 °F 0.8 °F 8.6 °F 92% 30.28 in 7.0 mi NW 5.8 mph - N/A Snow Light Snow
6:53 AM 10.4 °F -0.4 °F 8.6 °F 92% 30.28 in 7.0 mi NNW 6.9 mph - N/A Snow Light Snow
7:13 AM 10.4 °F -0.4 °F 8.6 °F 92% 30.28 in 7.0 mi NW 6.9 mph - N/A Snow Light Snow
7:33 AM 10.4 °F 0.8 °F 8.6 °F 92% 30.29 in 7.0 mi NW 5.8 mph - N/A Snow Light Snow
7:53 AM 10.4 °F 0.8 °F 8.6 °F 92% 30.30 in 10.0 mi NW 5.8 mph - N/A Snow Light Snow
8:13 AM 10.4 °F 0.8 °F 8.6 °F 92% 30.31 in 10.0 mi NW 5.8 mph - N/A Snow Light Snow
8:33 AM 10.4 °F 4.0 °F 8.6 °F 92% 30.32 in 4.0 mi NW 3.5 mph - N/A Snow Light Snow
8:53 AM 10.4 °F -0.4 °F 8.6 °F 92% 30.32 in 4.0 mi NW 6.9 mph - N/A Snow Light Snow
9:13 AM 12.2 °F 2.9 °F 8.6 °F 85% 30.33 in 3.0 mi NW 5.8 mph - N/A Snow Light Snow
9:33 AM 12.2 °F 2.9 °F 8.6 °F 85% 30.34 in 5.0 mi NW 5.8 mph - N/A Snow Light Snow
9:53 AM 12.2 °F -0.2 °F 8.6 °F 85% 30.34 in 7.0 mi NW 9.2 mph - N/A Snow Light Snow
10:13 AM 12.2 °F 2.9 °F 8.6 °F 85% 30.35 in 7.0 mi NW 5.8 mph - N/A   Overcast
10:33 AM 12.2 °F 4.3 °F 8.6 °F 85% 30.35 in 7.0 mi NW 4.6 mph - N/A   Overcast
10:53 AM 12.2 °F 1.7 °F 8.6 °F 85% 30.35 in 7.0 mi NW 6.9 mph - N/A   Overcast
11:13 AM 14.0 °F 3.9 °F 8.6 °F 79% 30.35 in 7.0 mi NW 6.9 mph - N/A   Overcast
11:33 AM 14.0 °F 2.9 °F 8.6 °F 79% 30.36 in 7.0 mi WNW 8.1 mph - N/A   Mostly Cloudy
11:53 AM 12.2 °F -0.2 °F 8.6 °F 85% 30.36 in 7.0 mi WNW 9.2 mph - N/A Snow Light Snow
12:13 PM 14.0 °F 2.9 °F 8.6 °F 79% 30.36 in 7.0 mi NW 8.1 mph - N/A Snow Light Snow
12:33 PM 14.0 °F 2.9 °F 8.6 °F 79% 30.35 in 4.0 mi WNW 8.1 mph - N/A Snow Light Snow
12:53 PM 14.0 °F 3.9 °F 8.6 °F 79% 30.35 in 5.0 mi WNW 6.9 mph - N/A Snow Light Snow
1:13 PM 14.0 °F 2.0 °F 8.6 °F 79% 30.35 in 4.0 mi NW 9.2 mph - N/A Snow Light Snow
1:33 PM 14.0 °F 2.9 °F 8.6 °F 79% 30.35 in 4.0 mi NW 8.1 mph - N/A Snow Light Snow
1:53 PM 14.0 °F 2.0 °F 8.6 °F 79% 30.35 in 3.0 mi NW 9.2 mph - N/A Snow Light Snow
2:13 PM 14.0 °F 2.9 °F 8.6 °F 79% 30.35 in 2.5 mi NW 8.1 mph - N/A Snow Light Snow
2:33 PM 14.0 °F 2.9 °F 8.6 °F 79% 30.35 in 2.0 mi NNW 8.1 mph - N/A Snow Light Snow
2:53 PM 12.2 °F 0.7 °F 8.6 °F 85% 30.36 in 2.5 mi NNW 8.1 mph - N/A Snow Light Snow
3:13 PM 12.2 °F 1.7 °F 6.8 °F 79% 30.36 in 3.0 mi NW 6.9 mph - N/A Snow Light Snow
3:33 PM 12.2 °F 2.9 °F 6.8 °F 79% 30.37 in 10.0 mi NW 5.8 mph - N/A   Mostly Cloudy
3:53 PM 10.4 °F - 5.0 °F 79% 30.37 in 10.0 mi Calm Calm - N/A   Clear
4:13 PM 6.8 °F - 1.4 °F 79% 30.38 in 5.0 mi Calm Calm - N/A Snow Light Snow
4:33 PM 6.8 °F - 3.2 °F 85% 30.39 in 4.0 mi Calm Calm - N/A Snow Light Snow
4:53 PM 8.6 °F - 5.0 °F 85% 30.39 in 4.0 mi Calm Calm - N/A Snow Light Snow
5:13 PM 10.4 °F 0.8 °F 6.8 °F 85% 30.39 in 3.0 mi WNW 5.8 mph - N/A Snow Light Snow
5:33 PM 10.4 °F 0.8 °F 6.8 °F 85% 30.39 in 5.0 mi NW 5.8 mph - N/A Snow Light Snow
5:53 PM 10.4 °F 0.8 °F 6.8 °F 85% 30.40 in 3.0 mi West 5.8 mph - N/A Snow Light Snow
6:13 PM 10.4 °F 2.2 °F 6.8 °F 85% 30.40 in 4.0 mi West 4.6 mph - N/A Snow Light Snow
6:33 PM 10.4 °F -1.5 °F 8.6 °F 92% 30.40 in 5.0 mi West 8.1 mph - N/A Snow Light Snow
6:53 PM 10.4 °F -1.5 °F 6.8 °F 85% 30.40 in 4.0 mi WNW 8.1 mph - N/A Snow Light Snow
7:13 PM 10.4 °F -1.5 °F 6.8 °F 85% 30.41 in 5.0 mi WNW 8.1 mph - N/A Snow Light Snow
7:53 PM 10.4 °F -2.4 °F 6.8 °F 85% 30.42 in 5.0 mi NW 9.2 mph - N/A Snow Light Snow
8:13 PM 10.4 °F -3.3 °F 6.8 °F 85% 30.42 in 5.0 mi NW 10.4 mph - N/A Snow Light Snow
8:33 PM 10.4 °F -2.4 °F 6.8 °F 85% 30.42 in 4.0 mi WNW 9.2 mph - N/A Snow Light Snow
8:53 PM 8.6 °F -4.7 °F 6.8 °F 92% 30.42 in 5.0 mi WNW 9.2 mph - N/A Snow Light Snow
9:13 PM 8.6 °F -2.6 °F 6.8 °F 92% 30.42 in 7.0 mi WNW 6.9 mph - N/A Snow Light Snow
9:33 PM 10.4 °F 0.8 °F 6.8 °F 85% 30.42 in 4.0 mi NW 5.8 mph - N/A Snow Light Snow
9:53 PM 10.4 °F -0.4 °F 6.8 °F 85% 30.42 in 5.0 mi NW 6.9 mph - N/A Snow Light Snow
10:13 PM 10.4 °F -1.5 °F 6.8 °F 85% 30.42 in 4.0 mi WNW 8.1 mph - N/A Snow Light Snow
10:33 PM 10.4 °F -0.4 °F 6.8 °F 85% 30.41 in 5.0 mi WNW 6.9 mph - N/A Snow Light Snow
10:53 PM 10.4 °F -3.3 °F 8.6 °F 92% 30.41 in 4.0 mi NW 10.4 mph - N/A Snow Light Snow
11:13 PM 10.4 °F -4.1 °F 8.6 °F 92% 30.42 in 7.0 mi NW 11.5 mph - N/A Snow Light Snow
11:33 PM 10.4 °F -0.4 °F 8.6 °F 92% 30.42 in 7.0 mi NW 6.9 mph - N/A Snow Light Snow
11:53 PM 10.4 °F -0.4 °F 8.6 °F 92% 30.42 in 5.0 mi WNW 6.9 mph - N/A Snow Light Snow